Location: Mexico
(19.4000°N, 99.1500°W)
Time: 23:54:01
(UTC-06:00)

ISS - Pass Details

Date: 17 October 2017
Orbit: 400 x 408 km, 51.6° (Epoch: 24 October)

Event Time Altitude Azimuth Distance (km) Brightness Sun altitude
Rises 19:38:50 0° 315° (NW) 2,315 0.6 -21.2°
Reaches altitude 10° 19:40:57 10° 309° (NW) 1,456 -0.4 -21.7°
Enters shadow 19:44:02 50° 240° (WSW) 524 -3.0 -22.5°
